TimeCDT,TemperatureF,Dew PointF,Humidity,Sea Level PressureIn,VisibilityMPH,Wind Direction,Wind SpeedMPH,Gust SpeedMPH,PrecipitationIn,Events,Conditions,WindDirDegrees,DateUTC
12:15 AM,62.6,60.8,94,29.75,5.0,South,15.0,-,N/A,Rain,Light Rain,180,2013-10-31 05:15:00
12:35 AM,62.6,60.8,94,29.75,10.0,South,11.5,-,N/A,Rain,Light Rain,190,2013-10-31 05:35:00
12:55 AM,62.6,60.8,94,29.72,5.0,SSE,17.3,20.7,N/A,Rain,Rain,160,2013-10-31 05:55:00
1:15 AM,62.6,60.8,94,29.71,10.0,SSE,16.1,-,N/A,,Overcast,160,2013-10-31 06:15:00
1:35 AM,62.6,60.8,94,29.71,10.0,South,15.0,-,N/A,,Light Drizzle,170,2013-10-31 06:35:00
1:55 AM,62.6,60.8,94,29.72,10.0,South,11.5,-,N/A,Rain,Light Rain,190,2013-10-31 06:55:00
2:15 AM,62.6,60.8,94,29.71,4.0,South,15.0,20.7,N/A,Rain,Rain,190,2013-10-31 07:15:00
2:35 AM,62.6,60.8,94,29.70,7.0,South,12.7,-,N/A,Rain,Light Rain,170,2013-10-31 07:35:00
2:55 AM,60.8,60.8,100,29.69,4.0,SSE,8.1,-,N/A,Rain,Rain,160,2013-10-31 07:55:00
3:15 AM,60.8,60.8,100,29.68,4.0,SSE,6.9,-,N/A,Rain,Rain,160,2013-10-31 08:15:00
3:35 AM,60.8,60.8,100,29.66,7.0,SSE,8.1,-,N/A,Rain,Light Rain,150,2013-10-31 08:35:00
3:55 AM,60.8,60.8,100,29.65,7.0,SSE,8.1,-,N/A,,Light Drizzle,150,2013-10-31 08:55:00
4:15 AM,60.8,60.8,100,29.63,7.0,SSE,9.2,-,N/A,Rain,Light Rain,160,2013-10-31 09:15:00
4:35 AM,60.8,60.8,100,29.61,10.0,SSE,9.2,-,N/A,Rain,Light Rain,160,2013-10-31 09:35:00
4:55 AM,62.6,60.8,94,29.61,10.0,South,11.5,-,N/A,Rain,Light Rain,180,2013-10-31 09:55:00
5:15 AM,62.6,60.8,94,29.61,7.0,South,11.5,-,N/A,Rain,Light Rain,180,2013-10-31 10:15:00
5:35 AM,62.6,60.8,94,29.60,7.0,South,10.4,-,N/A,Rain,Light Rain,190,2013-10-31 10:35:00
5:55 AM,62.6,60.8,94,29.60,7.0,SSW,9.2,-,N/A,Rain,Light Rain,200,2013-10-31 10:55:00
6:15 AM,59.0,57.2,94,29.62,7.0,North,5.8,-,N/A,Rain,Light Rain,350,2013-10-31 11:15:00
6:35 AM,57.2,55.4,94,29.62,10.0,North,8.1,-,N/A,,Light Drizzle,10,2013-10-31 11:35:00
6:55 AM,57.2,55.4,94,29.62,10.0,North,6.9,-,N/A,Rain,Light Rain,10,2013-10-31 11:55:00
7:15 AM,57.2,55.4,94,29.61,10.0,Calm,Calm,-,N/A,Rain,Light Rain,0,2013-10-31 12:15:00
7:35 AM,57.2,55.4,94,29.60,10.0,NNE,5.8,-,N/A,Rain,Light Rain,20,2013-10-31 12:35:00
7:55 AM,57.2,55.4,94,29.59,10.0,NNE,6.9,-,N/A,Rain,Light Rain,30,2013-10-31 12:55:00
8:15 AM,57.2,55.4,94,29.58,10.0,NNE,9.2,-,N/A,,Light Drizzle,30,2013-10-31 13:15:00
8:35 AM,57.2,55.4,94,29.58,10.0,NE,8.1,-,N/A,,Overcast,50,2013-10-31 13:35:00
8:55 AM,57.2,55.4,94,29.58,10.0,NE,9.2,-,N/A,Rain,Light Rain,50,2013-10-31 13:55:00
9:15 AM,57.2,55.4,94,29.58,10.0,NE,4.6,-,N/A,,Overcast,50,2013-10-31 14:15:00
9:35 AM,57.2,55.4,94,29.58,10.0,NNE,3.5,-,N/A,,Overcast,30,2013-10-31 14:35:00
9:55 AM,57.2,55.4,94,29.58,10.0,Calm,Calm,-,N/A,,Mostly Cloudy,0,2013-10-31 14:55:00
10:15 AM,59.0,55.4,88,29.58,10.0,North,5.8,-,N/A,,Mostly Cloudy,360,2013-10-31 15:15:00
10:35 AM,57.2,55.4,94,29.59,10.0,NNW,13.8,-,N/A,Rain,Light Rain,340,2013-10-31 15:35:00
10:55 AM,55.4,53.6,94,29.59,10.0,North,12.7,-,N/A,,Overcast,360,2013-10-31 15:55:00
11:15 AM,57.2,53.6,88,29.57,10.0,NNE,13.8,-,N/A,,Mostly Cloudy,20,2013-10-31 16:15:00
11:35 AM,55.4,51.8,88,29.60,10.0,NNW,17.3,23.0,N/A,,Overcast,340,2013-10-31 16:35:00
11:55 AM,55.4,51.8,88,29.60,10.0,NNW,16.1,25.3,N/A,,Overcast,340,2013-10-31 16:55:00
12:15 PM,53.6,51.8,94,29.60,10.0,NNW,13.8,21.9,N/A,,Overcast,340,2013-10-31 17:15:00
12:35 PM,53.6,51.8,94,29.60,10.0,North,18.4,-,N/A,,Overcast,350,2013-10-31 17:35:00
12:55 PM,55.4,51.8,88,29.60,10.0,NNW,17.3,-,N/A,,Overcast,330,2013-10-31 17:55:00
1:15 PM,53.6,51.8,94,29.62,3.0,NW,9.2,-,N/A,Rain,Rain,320,2013-10-31 18:15:00
1:35 PM,53.6,50.0,88,29.60,10.0,NNW,15.0,-,N/A,,Overcast,340,2013-10-31 18:35:00
1:55 PM,53.6,50.0,88,29.61,7.0,NW,9.2,-,N/A,Rain,Light Rain,320,2013-10-31 18:55:00
2:15 PM,53.6,50.0,88,29.63,10.0,NW,17.3,25.3,N/A,,Overcast,310,2013-10-31 19:15:00
2:35 PM,53.6,50.0,88,29.63,10.0,NW,18.4,24.2,N/A,,Overcast,310,2013-10-31 19:35:00
2:55 PM,55.4,50.0,82,29.64,10.0,NW,15.0,20.7,N/A,,Overcast,320,2013-10-31 19:55:00
3:15 PM,55.4,50.0,82,29.64,10.0,WNW,10.4,-,N/A,,Scattered Clouds,300,2013-10-31 20:15:00
3:35 PM,57.2,48.2,72,29.64,10.0,WNW,13.8,-,N/A,,Clear,290,2013-10-31 20:35:00
3:55 PM,59.0,48.2,67,29.64,10.0,WNW,11.5,-,N/A,,Clear,300,2013-10-31 20:55:00
4:15 PM,59.0,46.4,63,29.65,10.0,West,9.2,-,N/A,,Clear,280,2013-10-31 21:15:00
4:35 PM,60.8,46.4,59,29.65,10.0,West,8.1,-,N/A,,Clear,270,2013-10-31 21:35:00
4:55 PM,60.8,46.4,59,29.66,10.0,West,10.4,18.4,N/A,,Clear,280,2013-10-31 21:55:00
5:15 PM,60.8,46.4,59,29.67,10.0,West,11.5,-,N/A,,Clear,270,2013-10-31 22:15:00
5:35 PM,60.8,46.4,59,29.67,10.0,West,9.2,-,N/A,,Clear,270,2013-10-31 22:35:00
5:55 PM,59.0,46.4,63,29.67,10.0,West,5.8,-,N/A,,Clear,270,2013-10-31 22:55:00
6:15 PM,57.2,46.4,67,29.67,10.0,West,5.8,-,N/A,,Clear,260,2013-10-31 23:15:00
6:35 PM,57.2,46.4,67,29.68,10.0,WSW,8.1,-,N/A,,Clear,250,2013-10-31 23:35:00
6:55 PM,55.4,44.6,67,29.68,10.0,West,8.1,-,N/A,,Clear,270,2013-10-31 23:55:00
7:15 PM,55.4,44.6,67,29.69,10.0,West,5.8,-,N/A,,Clear,270,2013-11-01 00:15:00
7:35 PM,55.4,44.6,67,29.69,10.0,West,4.6,-,N/A,,Clear,260,2013-11-01 00:35:00
7:55 PM,53.6,46.4,77,29.68,10.0,West,3.5,-,N/A,,Clear,260,2013-11-01 00:55:00
8:15 PM,51.8,44.6,76,29.70,10.0,WSW,5.8,-,N/A,,Clear,250,2013-11-01 01:15:00
8:35 PM,51.8,44.6,76,29.70,10.0,SW,5.8,-,N/A,,Clear,230,2013-11-01 01:35:00
8:55 PM,51.8,44.6,76,29.69,10.0,SW,4.6,-,N/A,,Clear,230,2013-11-01 01:55:00
9:15 PM,50.0,44.6,82,29.70,10.0,SW,6.9,-,N/A,,Clear,220,2013-11-01 02:15:00
9:35 PM,50.0,44.6,82,29.72,10.0,SW,8.1,-,N/A,,Clear,220,2013-11-01 02:35:00
9:55 PM,51.8,44.6,76,29.73,10.0,SW,9.2,-,N/A,,Clear,230,2013-11-01 02:55:00
10:15 PM,51.8,42.8,71,29.73,10.0,SW,8.1,-,N/A,,Clear,230,2013-11-01 03:15:00
10:35 PM,50.0,44.6,82,29.74,10.0,SW,8.1,-,N/A,,Clear,230,2013-11-01 03:35:00
10:55 PM,50.0,42.8,76,29.74,10.0,SW,8.1,-,N/A,,Clear,220,2013-11-01 03:55:00
11:15 PM,50.0,42.8,76,29.75,10.0,SW,8.1,-,N/A,,Clear,220,2013-11-01 04:15:00
11:35 PM,50.0,42.8,76,29.75,10.0,SW,9.2,-,N/A,,Clear,230,2013-11-01 04:35:00
11:55 PM,50.0,42.8,76,29.75,10.0,SW,8.1,-,N/A,,Clear,230,2013-11-01 04:55:00